TimeCDT,TemperatureF,Dew PointF,Humidity,Sea Level PressureIn,VisibilityMPH,Wind Direction,Wind SpeedMPH,Gust SpeedMPH,PrecipitationIn,Events,Conditions,WindDirDegrees,DateUTC
12:51 AM,84.9,66.0,53,29.85,10.0,South,12.7,-,N/A,,Clear,180,2012-09-05 05:51:00
1:51 AM,84.0,66.9,56,29.86,10.0,South,18.4,-,N/A,,Clear,180,2012-09-05 06:51:00
2:51 AM,81.0,68.0,65,29.86,10.0,South,13.8,-,N/A,,Clear,190,2012-09-05 07:51:00
3:51 AM,79.0,69.1,72,29.85,10.0,South,13.8,-,N/A,,Clear,180,2012-09-05 08:51:00
4:51 AM,77.0,70.0,79,29.85,10.0,SSW,10.4,-,N/A,,Clear,200,2012-09-05 09:51:00
5:51 AM,75.9,71.1,85,29.86,10.0,South,11.5,-,N/A,,Clear,190,2012-09-05 10:51:00
6:51 AM,75.0,71.1,87,29.86,10.0,South,10.4,-,N/A,,Clear,190,2012-09-05 11:51:00
7:51 AM,75.9,72.0,87,29.87,9.0,South,11.5,-,N/A,,Clear,190,2012-09-05 12:51:00
8:51 AM,80.1,72.0,76,29.88,10.0,South,13.8,-,N/A,,Clear,180,2012-09-05 13:51:00
9:51 AM,84.0,71.1,65,29.89,10.0,South,12.7,-,N/A,,Clear,190,2012-09-05 14:51:00
10:51 AM,88.0,71.1,57,29.89,10.0,South,9.2,-,N/A,,Clear,170,2012-09-05 15:51:00
11:51 AM,91.0,69.1,48,29.89,10.0,South,8.1,-,N/A,,Clear,170,2012-09-05 16:51:00
12:51 PM,95.0,68.0,41,29.86,10.0,South,10.4,-,N/A,,Clear,180,2012-09-05 17:51:00
1:51 PM,97.0,64.9,35,29.84,10.0,South,8.1,-,N/A,,Clear,190,2012-09-05 18:51:00
2:51 PM,98.6,62.6,30,29.84,10.0,SSE,6.9,-,N/A,,Clear,160,2012-09-05 19:51:00
3:51 PM,100.0,57.9,25,29.80,10.0,South,9.2,-,N/A,,Clear,190,2012-09-05 20:51:00
4:51 PM,100.9,54.0,21,29.78,10.0,South,10.4,-,N/A,,Clear,190,2012-09-05 21:51:00
5:51 PM,100.0,57.0,24,29.77,10.0,South,10.4,-,N/A,,Clear,170,2012-09-05 22:51:00
6:51 PM,98.6,55.4,24,29.79,10.0,SSE,9.2,-,N/A,,Clear,160,2012-09-05 23:51:00
7:51 PM,91.0,55.9,30,29.78,10.0,ESE,6.9,-,N/A,,Clear,120,2012-09-06 00:51:00
8:51 PM,88.0,59.0,37,29.81,10.0,SE,8.1,-,N/A,,Clear,140,2012-09-06 01:51:00
9:51 PM,90.0,61.0,38,29.81,10.0,SSE,9.2,-,N/A,,Clear,150,2012-09-06 02:51:00
10:51 PM,89.1,64.0,43,29.82,10.0,South,12.7,-,N/A,,Clear,170,2012-09-06 03:51:00
11:51 PM,87.8,66.2,49,29.85,10.0,South,12.7,-,N/A,,Clear,170,2012-09-06 04:51:00